Nashua, NH

8:03 PM EDT on July 27, 2017 (GMT -0400)
Boire

Weather History for KASH - January, 2013

Change the Weather History Date:

Wednesday, January 30, 2013

  Actual Average Record
Temperature  
Mean Temperature 44 °F -  
Max Temperature 56 °F 34 °F 56 °F (1950)
Min Temperature 32 °F 13 °F -12 °F (1952)
Degree Days  
Heating Degree Days 21    
Moisture  
Dew Point 38 °F    
Average Humidity 95    
Maximum Humidity 100    
Minimum Humidity 87    
Precipitation  
Precipitation 0.29 in - - ()
Sea Level Pressure  
Sea Level Pressure 30.13 in    
Wind  
Wind Speed 2 mph (SE)    
Max Wind Speed 8 mph    
Max Gust Speed -    
Visibility 2 miles    
Events Fog , Rain    
Averages and records for this station are not official NWS values.
T = Trace of Precipitation, MM = Missing Value Source: NWS Daily Summary

Daily Weather History Graph

Daily Weather History Graph

Search for Another Location

Airport or City:

Trip Planner

Search our weather history database for the weather conditions in past years. The results will help you decide how hot, cold, wet, or windy it might be!

Date:

Astronomy

Jan. 30, 2013 Rise Set
Actual Time 7:02 AM EST 4:56 PM EST
Civil Twilight 6:32 AM EST 5:27 PM EST
Nautical Twilight 5:58 AM EST 6:01 PM EST
Astronomical Twilight 5:25 AM EST 6:34 PM EST
Moon 8:59 PM EST (1/30) 8:22 AM EST (1/30)
Length of Visible Light 10h 54m
Length of Day
9h 54m
Waning Gibbous, 88% of the Moon is Illuminated
Jan 30
Waning Gibbous
Feb 3
Last Quarter
Feb 10
New
Feb 17
First Quarter
Feb 25
Full

Hourly Weather History & Observations

Time (EST) Temp. Windchill Dew Point Humidity Pressure Visibility Wind Dir Wind Speed Gust Speed Precip Events Conditions
12:13 AM 32.0 °F - 30.2 °F 93% 30.15 in 1.5 mi Calm Calm - 0.00 in   Clear
12:21 AM 32.0 °F 28.7 °F 30.2 °F 93% 30.14 in 1.2 mi SE 3.5 mph - 0.00 in   Clear
12:27 AM 32.0 °F - 30.2 °F 93% 30.14 in 1.0 mi Calm Calm - 0.00 in   Mist
12:44 AM 32.0 °F - 30.2 °F 93% 30.13 in 1.5 mi Calm Calm - 0.00 in   Mostly Cloudy
12:51 AM 32.0 °F - 31.1 °F 96% 30.89 in 1.8 mi Calm Calm - 0.01 in   Mostly Cloudy
1:40 AM 32.0 °F 28.7 °F 30.2 °F 93% 30.12 in 2.0 mi SE 3.5 mph - 0.01 in   Clear
1:51 AM 32.0 °F 28.7 °F 31.1 °F 96% 30.88 in 2.0 mi SE 3.5 mph - 0.01 in   Partly Cloudy
2:23 AM 32.0 °F 27.5 °F 30.2 °F 93% 30.10 in 1.8 mi ESE 4.6 mph - N/A   Mostly Cloudy
2:39 AM 32.0 °F 27.5 °F 30.2 °F 93% 30.08 in 2.0 mi ESE 4.6 mph - 0.00 in   Scattered Clouds
2:51 AM 32.0 °F 27.5 °F 31.1 °F 96% 30.84 in 1.8 mi SE 4.6 mph - 0.01 in   Mostly Cloudy
3:02 AM 32.0 °F 28.7 °F 30.2 °F 93% 30.07 in 2.0 mi SE 3.5 mph - 0.00 in   Mostly Cloudy
3:16 AM 32.0 °F - 30.2 °F 93% 30.06 in 1.8 mi Calm Calm - 0.00 in   Mostly Cloudy
3:30 AM 32.0 °F 28.7 °F 30.2 °F 93% 30.05 in 1.2 mi ESE 3.5 mph - 0.00 in   Mostly Cloudy
3:37 AM 32.0 °F 28.7 °F 30.2 °F 93% 30.05 in 1.0 mi SE 3.5 mph - 0.00 in   Mist
3:51 AM 32.0 °F - 31.1 °F 96% 30.81 in 1.0 mi Calm Calm - 0.00 in   Mist
3:59 AM 33.8 °F - 32.0 °F 93% 30.04 in 0.8 mi Calm Calm - N/A   Mist
4:06 AM 33.8 °F - 32.0 °F 93% 30.04 in 0.5 mi Calm Calm - N/A Fog Fog
4:18 AM 32.0 °F - 30.2 °F 93% 30.03 in 0.2 mi Calm Calm - N/A Fog Fog
4:51 AM 32.0 °F 27.5 °F 31.1 °F 96% 30.77 in 0.2 mi ESE 4.6 mph - 0.01 in Fog Fog
5:21 AM 32.0 °F 28.7 °F 30.2 °F 93% 30.01 in 0.5 mi ESE 3.5 mph - N/A Fog Fog
5:51 AM 32.9 °F - 32.0 °F 96% 30.76 in 0.8 mi Calm Calm - 0.01 in   Mist
6:51 AM 32.9 °F - 32.0 °F 96% 30.73 in 0.8 mi Calm Calm - 0.01 in   Mist
7:04 AM 32.0 °F - 32.0 °F 100% 29.96 in 0.2 mi Calm Calm - N/A Fog Fog
7:22 AM 33.8 °F - 32.0 °F 93% 29.95 in 0.2 mi Calm Calm - N/A Fog Fog
7:41 AM 33.8 °F - 32.0 °F 93% 29.94 in 0.5 mi Calm Calm - N/A Fog Fog
7:51 AM 32.9 °F - 32.0 °F 96% 30.69 in 0.2 mi Calm Calm - 0.01 in Fog Fog
8:51 AM 32.9 °F - 32.0 °F 96% 30.66 in 0.2 mi Calm Calm - 0.01 in Fog Fog
9:02 AM 33.8 °F - 32.0 °F 93% 29.90 in 0.5 mi Calm Calm - N/A Fog Fog
9:51 AM 34.0 °F - 32.9 °F 96% 30.62 in 0.2 mi Calm Calm - 0.02 in Fog Fog
10:25 AM 33.8 °F - 33.8 °F 100% 29.84 in 0.2 mi Calm Calm - 0.02 in Fog Fog
10:51 AM 34.9 °F - 34.0 °F 97% 30.57 in 0.2 mi Calm Calm - 0.03 in Fog Fog
11:51 AM 34.9 °F - 34.0 °F 97% 30.52 in 0.2 mi Calm Calm - 0.04 in Fog Fog
12:51 PM 36.9 °F - 36.0 °F 97% 30.46 in 0.1 mi Calm Calm - 0.05 in Fog Fog
1:51 PM 37.9 °F - 36.9 °F 96% 30.40 in 0.1 mi Calm Calm - 0.04 in Fog Fog
1:58 PM 37.4 °F - 37.4 °F 100% 29.65 in 0.2 mi Calm Calm - N/A Fog Fog
2:51 PM 37.9 °F 33.5 °F 37.9 °F 100% 30.38 in 0.2 mi NNW 5.8 mph - 0.01 in Fog Fog
3:08 PM 39.2 °F - 37.4 °F 93% 29.61 in 0.2 mi Calm Calm - N/A Fog Fog
3:11 PM 39.2 °F - 37.4 °F 93% 29.61 in 0.5 mi Calm Calm - N/A Fog Fog
3:20 PM 39.2 °F - 37.4 °F 93% 29.60 in 1.0 mi Calm Calm - N/A   Mostly Cloudy
3:36 PM 39.2 °F - 37.4 °F 93% 29.60 in 1.5 mi Calm Calm - N/A   Overcast
3:42 PM 37.4 °F 34.9 °F 37.4 °F 100% 29.59 in 1.0 mi ESE 3.5 mph - 0.00 in   Overcast
3:51 PM 43.0 °F 39.5 °F 41.9 °F 96% 30.33 in 0.8 mi SSE 5.8 mph - 0.00 in   Overcast
3:58 PM 46.4 °F 44.3 °F 46.4 °F 100% 29.59 in 1.0 mi Variable 4.6 mph - N/A   Overcast
4:06 PM 50.0 °F - 48.2 °F 94% 29.58 in 1.5 mi Variable 5.8 mph - N/A   Overcast
4:10 PM 51.8 °F - 50.0 °F 94% 29.58 in 3.0 mi South 5.8 mph - N/A   Overcast
4:28 PM 53.6 °F - 51.8 °F 94% 29.59 in 6.0 mi Variable 6.9 mph - N/A   Scattered Clouds
4:44 PM 53.6 °F - 53.6 °F 100% 29.60 in 6.0 mi South 8.1 mph - 0.00 in Rain Light Rain
5:51 PM 54.9 °F - 52.9 °F 93% 30.31 in 10.0 mi Variable 5.8 mph - 0.01 in   Mostly Cloudy
6:51 PM 56.8 °F - 52.9 °F 87% 30.29 in 10.0 mi Variable 6.9 mph - N/A   Overcast
7:51 PM 56.8 °F - 54.0 °F 90% 30.28 in 4.0 mi South 8.1 mph - N/A   Overcast
8:51 PM 55.9 °F - 54.0 °F 93% 30.25 in 10.0 mi Variable 5.8 mph - N/A   Overcast
9:51 PM 56.8 °F - 54.0 °F 90% 30.23 in 10.0 mi Variable 5.8 mph - N/A   Overcast
10:51 PM 55.9 °F - 52.9 °F 89% 30.21 in 10.0 mi Variable 5.8 mph - N/A   Overcast
11:15 PM 55.4 °F - 53.6 °F 94% 29.46 in 2.5 mi SE 5.8 mph - 0.00 in Rain Light Rain
11:42 PM 55.4 °F - 53.6 °F 94% 29.44 in 3.0 mi Variable 4.6 mph - 0.01 in Rain Light Rain
11:51 PM 55.9 °F - 54.0 °F 93% 30.16 in 3.0 mi Variable 6.9 mph - 0.01 in Rain Light Rain